Location: Benque
(43.2594°N, 0.9178°E)
Time: 14:56:56
(UTC+00:00)

Cosmos 2297 Rocket - Pass Details

Date: 24 January 2020
Orbit: 838 x 845 km, 71.0° (Epoch: 22 February)

Event Time Altitude Azimuth Distance (km) Brightness Sun altitude
Rises 17:36:07 0° 197° (SSW) 3,378 5.9 -7.4°
Reaches altitude 10° 17:38:33 10° 195° (SSW) 2,448 5.1 -7.8°
Maximum altitude 17:44:09 73° 112° (ESE) 880 2.2 -8.8°
Drops below altitude 10° 17:49:48 10° 28° (NNE) 2,470 4.2 -9.8°
Enters shadow 17:51:55 - 27° (NNE) 3,279 4.9 -10.1°
